Time,TemperatureF,DewpointF,PressureIn,WindDirection,WindDirectionDegrees,WindSpeedMPH,WindSpeedGustMPH,Humidity,HourlyPrecipIn,Conditions,Clouds,dailyrainin,SoftwareType,DateUTC
2013-02-12 00:01:00,34.0,22.0,30.11,North,-999,-999.0,-999.0,60,-99.99,,,-99.99,,2013-02-12 06:01:00,
2013-02-12 00:12:00,34.0,22.0,30.11,North,-999,-999.0,-999.0,61,-99.99,,,-99.99,,2013-02-12 06:12:00,
2013-02-12 00:21:00,34.0,22.0,30.11,North,-999,-999.0,-999.0,61,-99.99,,,-99.99,,2013-02-12 06:21:00,
2013-02-12 00:32:00,33.0,22.0,30.11,North,-999,-999.0,-999.0,62,-99.99,,,-99.99,,2013-02-12 06:32:00,
2013-02-12 00:42:00,33.0,22.0,30.11,North,-999,-999.0,-999.0,63,-99.99,,,-99.99,,2013-02-12 06:42:00,
2013-02-12 00:51:00,33.0,22.0,30.11,North,-999,-999.0,-999.0,63,-99.99,,,-99.99,,2013-02-12 06:51:00,
2013-02-12 01:01:00,33.0,22.0,30.11,North,-999,-999.0,-999.0,62,-99.99,,,-99.99,,2013-02-12 07:01:00,
2013-02-12 01:11:00,33.0,22.0,30.11,North,-999,-999.0,-999.0,62,-99.99,,,-99.99,,2013-02-12 07:11:00,
2013-02-12 01:21:00,33.0,22.0,30.11,North,-999,-999.0,-999.0,62,-99.99,,,-99.99,,2013-02-12 07:21:00,
2013-02-12 01:31:00,32.0,21.0,30.12,North,-999,-999.0,-999.0,63,-99.99,,,-99.99,,2013-02-12 07:31:00,
2013-02-12 01:42:00,31.0,21.0,30.12,North,-999,-999.0,-999.0,64,-99.99,,,-99.99,,2013-02-12 07:42:00,
2013-02-12 01:51:00,31.0,21.0,30.12,North,-999,-999.0,-999.0,64,-99.99,,,-99.99,,2013-02-12 07:51:00,
2013-02-12 02:01:00,30.0,22.0,30.11,North,-999,-999.0,-999.0,70,-99.99,,,-99.99,,2013-02-12 08:01:00,
2013-02-12 02:11:00,30.0,22.0,30.11,North,-999,-999.0,-999.0,70,-99.99,,,-99.99,,2013-02-12 08:11:00,
2013-02-12 02:21:00,30.0,22.0,30.11,North,-999,-999.0,-999.0,70,-99.99,,,-99.99,,2013-02-12 08:21:00,
2013-02-12 02:32:00,32.0,22.0,30.11,North,-999,-999.0,-999.0,67,-99.99,,,-99.99,,2013-02-12 08:32:00,
2013-02-12 02:41:00,32.0,22.0,30.11,North,-999,-999.0,-999.0,66,-99.99,,,-99.99,,2013-02-12 08:41:00,
2013-02-12 02:52:00,32.0,22.0,30.11,North,-999,-999.0,-999.0,66,-99.99,,,-99.99,,2013-02-12 08:52:00,
2013-02-12 03:01:00,32.0,22.0,30.10,North,-999,-999.0,-999.0,66,-99.99,,,-99.99,,2013-02-12 09:01:00,
2013-02-12 03:11:00,31.0,21.0,30.09,North,-999,-999.0,-999.0,67,-99.99,,,-99.99,,2013-02-12 09:11:00,
2013-02-12 03:20:00,31.0,21.0,30.09,North,-999,-999.0,-999.0,68,-99.99,,,-99.99,,2013-02-12 09:20:00,
2013-02-12 03:21:00,31.0,21.0,30.09,North,-999,-999.0,-999.0,67,-99.99,,,-99.99,,2013-02-12 09:21:00,
2013-02-12 03:32:00,30.0,21.0,30.09,North,-999,-999.0,-999.0,69,-99.99,,,-99.99,,2013-02-12 09:32:00,
2013-02-12 03:42:00,31.0,22.0,30.10,North,-999,-999.0,-999.0,69,-99.99,,,-99.99,,2013-02-12 09:42:00,
2013-02-12 03:51:00,31.0,22.0,30.10,North,-999,-999.0,-999.0,69,-99.99,,,-99.99,,2013-02-12 09:51:00,
2013-02-12 04:01:00,31.0,21.0,30.09,North,-999,-999.0,-999.0,68,-99.99,,,-99.99,,2013-02-12 10:01:00,
2013-02-12 04:11:00,31.0,21.0,30.09,North,-999,-999.0,-999.0,68,-99.99,,,-99.99,,2013-02-12 10:11:00,
2013-02-12 07:32:00,32.0,22.0,30.07,North,-999,-999.0,-999.0,64,-99.99,,,-99.99,,2013-02-12 13:32:00,
2013-02-12 07:42:00,32.0,22.0,30.07,North,-999,-999.0,-999.0,64,-99.99,,,-99.99,,2013-02-12 13:42:00,
2013-02-12 07:51:00,32.0,22.0,30.07,North,-999,-999.0,-999.0,64,-99.99,,,-99.99,,2013-02-12 13:51:00,
2013-02-12 08:01:00,33.0,22.0,30.06,North,-999,-999.0,-999.0,64,-99.99,,,-99.99,,2013-02-12 14:01:00,
2013-02-12 08:12:00,33.0,22.0,30.07,North,-999,-999.0,-999.0,64,-99.99,,,-99.99,,2013-02-12 14:12:00,
2013-02-12 08:21:00,33.0,22.0,30.07,North,-999,-999.0,-999.0,64,-99.99,,,-99.99,,2013-02-12 14:21:00,
2013-02-12 08:32:00,33.0,22.0,30.08,North,-999,-999.0,-999.0,63,-99.99,,,-99.99,,2013-02-12 14:32:00,
2013-02-12 08:42:00,33.0,22.0,30.09,North,-999,-999.0,-999.0,64,-99.99,,,-99.99,,2013-02-12 14:42:00,
2013-02-12 08:52:00,33.0,22.0,30.09,North,-999,-999.0,-999.0,64,-99.99,,,-99.99,,2013-02-12 14:52:00,
2013-02-12 09:02:00,33.0,23.0,30.08,North,-999,-999.0,-999.0,65,-99.99,,,-99.99,,2013-02-12 15:02:00,
2013-02-12 09:11:00,33.0,23.0,30.07,North,-999,-999.0,-999.0,66,-99.99,,,-99.99,,2013-02-12 15:11:00,
2013-02-12 09:21:00,33.0,23.0,30.07,North,-999,-999.0,-999.0,66,-99.99,,,-99.99,,2013-02-12 15:21:00,
2013-02-12 09:30:00,38.0,24.0,30.05,North,-999,-999.0,-999.0,57,-99.99,,,-99.99,,2013-02-12 15:30:00,
2013-02-12 09:32:00,35.0,24.0,30.05,North,-999,-999.0,-999.0,64,-99.99,,,-99.99,,2013-02-12 15:32:00,
2013-02-12 09:42:00,36.0,24.0,30.04,North,-999,-999.0,-999.0,63,-99.99,,,-99.99,,2013-02-12 15:42:00,
2013-02-12 09:52:00,36.0,24.0,30.04,North,-999,-999.0,-999.0,63,-99.99,,,-99.99,,2013-02-12 15:52:00,
2013-02-12 10:01:00,37.0,25.0,30.05,North,-999,-999.0,-999.0,60,-99.99,,,-99.99,,2013-02-12 16:01:00,
2013-02-12 10:11:00,38.0,24.0,30.05,North,-999,-999.0,-999.0,57,-99.99,,,-99.99,,2013-02-12 16:11:00,
2013-02-12 10:22:00,38.0,24.0,30.05,North,-999,-999.0,-999.0,57,-99.99,,,-99.99,,2013-02-12 16:22:00,
2013-02-12 10:42:00,40.0,25.0,30.06,North,-999,-999.0,-999.0,55,-99.99,,,-99.99,,2013-02-12 16:42:00,
2013-02-12 10:52:00,41.0,24.0,30.06,North,-999,-999.0,-999.0,50,-99.99,,,-99.99,,2013-02-12 16:52:00,
2013-02-12 11:01:00,41.0,24.0,30.06,North,-999,-999.0,-999.0,50,-99.99,,,-99.99,,2013-02-12 17:01:00,
2013-02-12 11:12:00,42.0,24.0,30.05,North,-999,-999.0,-999.0,49,-99.99,,,-99.99,,2013-02-12 17:12:00,
2013-02-12 11:21:00,42.0,24.0,30.05,North,-999,-999.0,-999.0,49,-99.99,,,-99.99,,2013-02-12 17:21:00,
2013-02-12 11:32:00,43.0,24.0,30.05,North,-999,-999.0,-999.0,48,-99.99,,,-99.99,,2013-02-12 17:32:00,
2013-02-12 11:42:00,43.0,25.0,30.06,North,-999,-999.0,-999.0,48,-99.99,,,-99.99,,2013-02-12 17:42:00,
2013-02-12 11:52:00,43.0,25.0,30.06,North,-999,-999.0,-999.0,48,-99.99,,,-99.99,,2013-02-12 17:52:00,
2013-02-12 12:01:00,44.0,24.0,30.06,North,-999,-999.0,-999.0,46,-99.99,,,-99.99,,2013-02-12 18:01:00,
2013-02-12 12:11:00,44.0,25.0,30.06,North,-999,-999.0,-999.0,47,-99.99,,,-99.99,,2013-02-12 18:11:00,
2013-02-12 12:23:00,44.0,25.0,30.06,North,-999,-999.0,-999.0,47,-99.99,,,-99.99,,2013-02-12 18:23:00,
2013-02-12 12:32:00,44.0,24.0,30.05,North,-999,-999.0,-999.0,45,-99.99,,,-99.99,,2013-02-12 18:32:00,
2013-02-12 12:41:00,44.0,24.0,30.04,North,-999,-999.0,-999.0,45,-99.99,,,-99.99,,2013-02-12 18:41:00,
2013-02-12 12:51:00,44.0,24.0,30.04,North,-999,-999.0,-999.0,45,-99.99,,,-99.99,,2013-02-12 18:51:00,
2013-02-12 13:02:00,45.0,24.0,30.02,North,-999,-999.0,-999.0,44,-99.99,,,-99.99,,2013-02-12 19:02:00,
2013-02-12 13:11:00,45.0,24.0,30.01,North,-999,-999.0,-999.0,43,-99.99,,,-99.99,,2013-02-12 19:11:00,
2013-02-12 13:21:00,45.0,24.0,30.01,North,-999,-999.0,-999.0,43,-99.99,,,-99.99,,2013-02-12 19:21:00,
2013-02-12 13:30:00,46.0,24.0,29.98,North,-999,-999.0,-999.0,41,-99.99,,,-99.99,,2013-02-12 19:30:00,
2013-02-12 13:31:00,46.0,24.0,30.00,North,-999,-999.0,-999.0,41,-99.99,,,-99.99,,2013-02-12 19:31:00,
2013-02-12 13:41:00,46.0,24.0,30.01,North,-999,-999.0,-999.0,41,-99.99,,,-99.99,,2013-02-12 19:41:00,
2013-02-12 13:51:00,46.0,24.0,30.01,North,-999,-999.0,-999.0,41,-99.99,,,-99.99,,2013-02-12 19:51:00,
2013-02-12 14:01:00,46.0,23.0,30.00,North,-999,-999.0,-999.0,39,-99.99,,,-99.99,,2013-02-12 20:01:00,
2013-02-12 14:11:00,46.0,24.0,29.98,North,-999,-999.0,-999.0,41,-99.99,,,-99.99,,2013-02-12 20:11:00,
2013-02-12 14:21:00,46.0,24.0,29.98,North,-999,-999.0,-999.0,41,-99.99,,,-99.99,,2013-02-12 20:21:00,
2013-02-12 14:42:00,46.0,24.0,29.98,North,-999,-999.0,-999.0,41,-99.99,,,-99.99,,2013-02-12 20:42:00,
2013-02-12 14:52:00,46.0,24.0,29.98,North,-999,-999.0,-999.0,41,-99.99,,,-99.99,,2013-02-12 20:52:00,
2013-02-12 15:01:00,46.0,24.0,29.97,North,-999,-999.0,-999.0,41,-99.99,,,-99.99,,2013-02-12 21:01:00,
2013-02-12 15:11:00,46.0,24.0,29.96,North,-999,-999.0,-999.0,42,-99.99,,,-99.99,,2013-02-12 21:11:00,
2013-02-12 15:21:00,46.0,24.0,29.96,North,-999,-999.0,-999.0,42,-99.99,,,-99.99,,2013-02-12 21:21:00,
2013-02-12 15:31:00,45.0,24.0,29.97,North,-999,-999.0,-999.0,43,-99.99,,,-99.99,,2013-02-12 21:31:00,
2013-02-12 15:42:00,45.0,24.0,29.96,North,-999,-999.0,-999.0,44,-99.99,,,-99.99,,2013-02-12 21:42:00,
2013-02-12 15:51:00,45.0,24.0,29.96,North,-999,-999.0,-999.0,44,-99.99,,,-99.99,,2013-02-12 21:51:00,
2013-02-12 16:01:00,45.0,25.0,29.96,North,-999,-999.0,-999.0,46,-99.99,,,-99.99,,2013-02-12 22:01:00,
2013-02-12 16:12:00,44.0,25.0,29.94,North,-999,-999.0,-999.0,47,-99.99,,,-99.99,,2013-02-12 22:12:00,
2013-02-12 16:21:00,44.0,25.0,29.94,North,-999,-999.0,-999.0,47,-99.99,,,-99.99,,2013-02-12 22:21:00,
2013-02-12 16:32:00,44.0,26.0,29.93,North,-999,-999.0,-999.0,48,-99.99,,,-99.99,,2013-02-12 22:32:00,
2013-02-12 16:42:00,44.0,26.0,29.93,North,-999,-999.0,-999.0,48,-99.99,,,-99.99,,2013-02-12 22:42:00,
2013-02-12 16:51:00,44.0,26.0,29.93,North,-999,-999.0,-999.0,48,-99.99,,,-99.99,,2013-02-12 22:51:00,
2013-02-12 17:01:00,44.0,25.0,29.92,North,-999,-999.0,-999.0,47,-99.99,,,-99.99,,2013-02-12 23:01:00,
2013-02-12 17:11:00,44.0,25.0,29.92,North,-999,-999.0,-999.0,47,-99.99,,,-99.99,,2013-02-12 23:11:00,
2013-02-12 17:21:00,44.0,25.0,29.92,North,-999,-999.0,-999.0,47,-99.99,,,-99.99,,2013-02-12 23:21:00,
2013-02-12 17:32:00,44.0,26.0,29.92,North,-999,-999.0,-999.0,50,-99.99,,,-99.99,,2013-02-12 23:32:00,
2013-02-12 17:42:00,43.0,29.0,29.91,North,-999,-999.0,-999.0,57,-99.99,,,-99.99,,2013-02-12 23:42:00,
2013-02-12 17:52:00,43.0,29.0,29.91,North,-999,-999.0,-999.0,57,-99.99,,,-99.99,,2013-02-12 23:52:00,
2013-02-12 18:02:00,42.0,27.0,29.92,North,-999,-999.0,-999.0,55,-99.99,,,-99.99,,2013-02-13 00:02:00,
2013-02-12 18:11:00,42.0,27.0,29.92,North,-999,-999.0,-999.0,55,-99.99,,,-99.99,,2013-02-13 00:11:00,
2013-02-12 18:21:00,42.0,27.0,29.92,North,-999,-999.0,-999.0,55,-99.99,,,-99.99,,2013-02-13 00:21:00,
2013-02-12 18:32:00,42.0,28.0,29.91,North,-999,-999.0,-999.0,58,-99.99,,,-99.99,,2013-02-13 00:32:00,
2013-02-12 18:42:00,41.0,29.0,29.91,North,-999,-999.0,-999.0,60,-99.99,,,-99.99,,2013-02-13 00:42:00,
2013-02-12 18:52:00,41.0,29.0,29.91,North,-999,-999.0,-999.0,60,-99.99,,,-99.99,,2013-02-13 00:52:00,
2013-02-12 19:01:00,41.0,28.0,29.90,North,-999,-999.0,-999.0,61,-99.99,,,-99.99,,2013-02-13 01:01:00,
2013-02-12 19:11:00,40.0,29.0,29.90,North,-999,-999.0,-999.0,64,-99.99,,,-99.99,,2013-02-13 01:11:00,
2013-02-12 19:21:00,40.0,29.0,29.90,North,-999,-999.0,-999.0,64,-99.99,,,-99.99,,2013-02-13 01:21:00,
2013-02-12 19:31:00,39.0,30.0,29.91,North,-999,-999.0,-999.0,69,-99.99,,,-99.99,,2013-02-13 01:31:00,
2013-02-12 19:42:00,38.0,31.0,29.91,North,-999,-999.0,-999.0,73,-99.99,,,-99.99,,2013-02-13 01:42:00,
2013-02-12 19:51:00,37.0,31.0,29.90,North,-999,-999.0,-999.0,78,-99.99,,,-99.99,,2013-02-13 01:51:00,
2013-02-12 20:01:00,37.0,31.0,29.90,North,-999,-999.0,-999.0,78,-99.99,,,-99.99,,2013-02-13 02:01:00,
2013-02-12 20:11:00,36.0,30.0,29.90,North,-999,-999.0,-999.0,79,-99.99,,,-99.99,,2013-02-13 02:11:00,
2013-02-12 20:22:00,36.0,30.0,29.90,North,-999,-999.0,-999.0,79,-99.99,,,-99.99,,2013-02-13 02:22:00,
2013-02-12 20:31:00,35.0,30.0,29.92,North,-999,-999.0,-999.0,82,-99.99,,,-99.99,,2013-02-13 02:31:00,
2013-02-12 20:41:00,35.0,30.0,29.92,North,-999,-999.0,-999.0,82,-99.99,,,-99.99,,2013-02-13 02:41:00,
2013-02-12 20:52:00,35.0,30.0,29.92,North,-999,-999.0,-999.0,82,-99.99,,,-99.99,,2013-02-13 02:52:00,
2013-02-12 21:01:00,35.0,31.0,29.94,North,-999,-999.0,-999.0,83,-99.99,,,-99.99,,2013-02-13 03:01:00,
2013-02-12 21:11:00,35.0,30.0,29.94,North,-999,-999.0,-999.0,82,-99.99,,,-99.99,,2013-02-13 03:11:00,
2013-02-12 21:21:00,35.0,30.0,29.94,North,-999,-999.0,-999.0,82,-99.99,,,-99.99,,2013-02-13 03:21:00,
2013-02-12 21:32:00,35.0,30.0,29.94,North,-999,-999.0,-999.0,83,-99.99,,,-99.99,,2013-02-13 03:32:00,
2013-02-12 21:42:00,35.0,30.0,29.94,North,-999,-999.0,-999.0,83,-99.99,,,-99.99,,2013-02-13 03:42:00,
2013-02-12 21:51:00,35.0,30.0,29.94,North,-999,-999.0,-999.0,83,-99.99,,,-99.99,,2013-02-13 03:51:00,
2013-02-12 22:01:00,34.0,29.0,29.94,North,-999,-999.0,-999.0,83,-99.99,,,-99.99,,2013-02-13 04:01:00,
2013-02-12 22:11:00,34.0,29.0,29.94,North,-999,-999.0,-999.0,82,-99.99,,,-99.99,,2013-02-13 04:11:00,
2013-02-12 22:21:00,34.0,29.0,29.94,North,-999,-999.0,-999.0,82,-99.99,,,-99.99,,2013-02-13 04:21:00,
2013-02-12 22:32:00,33.0,29.0,29.94,North,-999,-999.0,-999.0,84,-99.99,,,-99.99,,2013-02-13 04:32:00,
2013-02-12 22:41:00,33.0,29.0,29.94,North,-999,-999.0,-999.0,84,-99.99,,,-99.99,,2013-02-13 04:41:00,
2013-02-12 22:51:00,33.0,29.0,29.94,North,-999,-999.0,-999.0,84,-99.99,,,-99.99,,2013-02-13 04:51:00,
2013-02-12 23:00:00,33.0,30.0,29.93,North,-999,-999.0,-999.0,86,-99.99,,,-99.99,,2013-02-13 05:00:00,
2013-02-12 23:01:00,33.0,29.0,29.94,North,-999,-999.0,-999.0,85,-99.99,,,-99.99,,2013-02-13 05:01:00,
2013-02-12 23:11:00,33.0,29.0,29.94,North,-999,-999.0,-999.0,85,-99.99,,,-99.99,,2013-02-13 05:11:00,
2013-02-12 23:22:00,33.0,29.0,29.94,North,-999,-999.0,-999.0,85,-99.99,,,-99.99,,2013-02-13 05:22:00,
2013-02-12 23:31:00,33.0,30.0,29.94,North,-999,-999.0,-999.0,86,-99.99,,,-99.99,,2013-02-13 05:31:00,
2013-02-12 23:42:00,33.0,30.0,29.93,North,-999,-999.0,-999.0,86,-99.99,,,-99.99,,2013-02-13 05:42:00,
2013-02-12 23:52:00,33.0,30.0,29.93,North,-999,-999.0,-999.0,86,-99.99,,,-99.99,,2013-02-13 05:52:00,